TimeEST,TemperatureF,Dew PointF,Humidity,Sea Level PressureIn,VisibilityMPH,Wind Direction,Wind SpeedMPH,Gust SpeedMPH,PrecipitationIn,Events,Conditions,WindDirDegrees,DateUTC
12:54 AM,39.0,18.0,43,30.02,10.0,NW,9.2,-,N/A,,Clear,320,2012-11-09 05:54:00
1:54 AM,39.0,19.0,45,30.03,10.0,NNW,6.9,-,N/A,,Clear,330,2012-11-09 06:54:00
2:54 AM,39.9,18.0,41,30.05,10.0,WNW,8.1,-,N/A,,Clear,300,2012-11-09 07:54:00
3:54 AM,37.9,18.0,45,30.06,10.0,WNW,3.5,-,N/A,,Clear,290,2012-11-09 08:54:00
4:54 AM,33.1,19.9,59,30.07,10.0,West,6.9,-,N/A,,Clear,260,2012-11-09 09:54:00
5:54 AM,36.0,19.9,52,30.09,10.0,West,3.5,-,N/A,,Clear,270,2012-11-09 10:54:00
6:54 AM,39.9,24.1,53,30.10,10.0,WNW,3.5,-,N/A,,Clear,300,2012-11-09 11:54:00
7:54 AM,41.0,26.1,55,30.13,10.0,NW,9.2,-,N/A,,Clear,320,2012-11-09 12:54:00
8:54 AM,44.1,28.0,53,30.14,10.0,NW,12.7,-,N/A,,Clear,320,2012-11-09 13:54:00
9:54 AM,46.9,27.0,46,30.15,10.0,NNW,12.7,19.6,N/A,,Clear,330,2012-11-09 14:54:00
10:54 AM,50.0,26.1,39,30.16,10.0,NW,10.4,-,N/A,,Clear,310,2012-11-09 15:54:00
11:54 AM,52.0,26.1,37,30.14,10.0,NNW,12.7,-,N/A,,Partly Cloudy,340,2012-11-09 16:54:00
12:54 PM,54.0,27.0,35,30.13,10.0,NW,10.4,-,N/A,,Partly Cloudy,320,2012-11-09 17:54:00
1:54 PM,55.0,28.0,35,30.12,10.0,NW,11.5,18.4,N/A,,Clear,320,2012-11-09 18:54:00
2:54 PM,55.9,28.0,34,30.12,10.0,WNW,9.2,-,N/A,,Partly Cloudy,300,2012-11-09 19:54:00
3:54 PM,55.0,28.0,35,30.13,10.0,NW,10.4,-,N/A,,Partly Cloudy,310,2012-11-09 20:54:00
4:54 PM,54.0,28.9,38,30.14,10.0,WNW,5.8,-,N/A,,Clear,300,2012-11-09 21:54:00
5:54 PM,53.1,30.0,41,30.17,10.0,WNW,4.6,-,N/A,,Clear,290,2012-11-09 22:54:00
6:54 PM,53.1,30.0,41,30.19,10.0,WNW,6.9,-,N/A,,Clear,290,2012-11-09 23:54:00
7:54 PM,50.0,30.9,48,30.21,10.0,WNW,6.9,-,N/A,,Clear,290,2012-11-10 00:54:00
8:54 PM,46.0,32.0,58,30.21,10.0,Calm,Calm,-,N/A,,Clear,0,2012-11-10 01:54:00
9:54 PM,48.0,32.0,54,30.22,10.0,Calm,Calm,-,N/A,,Clear,0,2012-11-10 02:54:00
10:54 PM,43.0,39.0,86,30.24,10.0,SSW,3.5,-,N/A,,Clear,210,2012-11-10 03:54:00
11:12 PM,42.8,37.4,81,30.24,9.0,SW,3.5,-,N/A,,Clear,220,2012-11-10 04:12:00
11:54 PM,41.0,37.0,86,30.25,8.0,Calm,Calm,-,N/A,,Clear,0,2012-11-10 04:54:00